DEORBITSAIL

Satellite information

Favourite Embed

Satellite Type and Status

PAYLOADIN ORBIT

Key statistics

Satellite DEORBITSAIL at a glance.

Uptime

3651

Days in orbit

Revolutions

≈ 15.0

Per day

Orbit

SSO

Sun Synchronous Orbit

Inclination

97.6

Latest

Satellite identification and parameters

Extended collection of information and parameters for DEORBITSAIL.

Object identification

Identified? True

Debris? False

Object name: DEORBITSAIL

International designator: 2015-032E

Object number (NORAD): 40719

Object ID (CCSDS): 40719

Country: UNITED KINGDOM (UK)

Current information (Y/N): Y

RCS size: SMALL

Orbital parameters

Period: 96.184 minutes

Inclination: 97.6399 deg

SMA: 6953.904 km

Apoapsis: 582.589 km

Periapsis: 568.949 km

RAAN: 47.8185 deg

Eccentricy: 0.0009807

Argument of periapsis: 296.5763 deg

Mean anomaly: 63.4453 deg

Mean motion: 14.97130789 rev/day

Mean motion (dot): 0.00004761 rev/day2

B* drag term: 0.00041688 1/REarth

Two-line elements (TLE)

Creation date: July 8, 2025, 2:27 a.m.

Reference frame: TEME

Reference center: EARTH

Epoch: July 7, 2025, 8:55 p.m. UTC

TLE line 0: 0 DEORBITSAIL

TLE line 1: 1 40719U 15032E 25188.87171281 .00004761 00000-0 41688-3 0 9999

TLE line 2: 2 40719 97.6399 47.8185 0009807 296.5763 63.4453 14.97130789539619

Live tracking on map

Real-time ground track for satellite DEORBITSAIL.

In-orbit conjunctions

There are no conjunctions computed for DEORBITSAIL, at the moment. Check back to stay up to date, as we update our databases every day.

Go to all conjunctions

Associated space launch

The Polar Satellite Launch Vehicle (PSLV), in its thirtieth flight (PSLV-C28), will launch three identical DMC3 optical earth observation satellites. A, B and C. It will also carry two auxiliary satellites from UK. CBNT-1, a technology demonstrator earth observation micro satellite, and De-OrbitSail, a technology demonstrator nano satellite.

DEORBITSAIL was lifted into orbit during the mission ‘PSLV XL | DMC-3A, DMC-3B, DMC-3C, CBNT-1 & DeOrbitSAIL’, on board a PSLV-XL space rocket.

The launch took place on July 10, 2015, 4:28 p.m. from Satish Dhawan Space Centre First Launch Pad.

For more information about the launch, click the button.

Launch to space PSLV XL | DMC-3A, DMC-3B, DMC-3C, CBNT-1 & DeOrbitSAIL
PSLV XL | DMC-3A, DMC-3B, DMC-3C, CBNT-1 & DeOrbitSAIL

Agency: N/A

Status: Launch Successful

Launch date: July 10, 2015, 4:28 p.m. UTC

Rocket: PSLV-XL

Launch pad: Satish Dhawan Space Centre First Launch Pad

Location: Satish Dhawan Space Centre, India

...

Latest news about this satellite

There are no fresh news available about this satellite. Check back as we update our databases every day.


Newsletter sign-up

Weekly statistics, charts and insights to help you stay on top of the space industry.